Location: Newark
(48.2308°N, 120.8549°W)
Time: 23:31:11
(UTC+00:00)

FENGYUN 1C DEB - Pass Details

Date: 02 February 2022
Orbit: 822 x 948 km, 99.2° (Epoch: 23 May)

Event Time Altitude Azimuth Distance (km) Brightness Sun altitude
Rises 03:08:09 0° 160° (SSE) 3,613 ? -20.9°
Reaches altitude 10° 03:10:36 10° 160° (SSE) 2,671 ? -21.3°
Maximum altitude 03:16:36 84° 74° (ENE) 956 ? -22.3°
Drops below altitude 10° 03:22:34 10° 346° (NNW) 2,645 ? -23.3°
Sets 03:24:58 0° 346° (NNW) 3,577 ? -23.7°
